Change the Weather History Date:

Monday, March 31, 2014

  Actual Average Record
Temperature  
Mean Temperature 58 °F -  
Max Temperature 71 °F 64 °F 87 °F (1986)
Min Temperature 44 °F 42 °F 19 °F (1964)
Degree Days  
Heating Degree Days 8    
Growing Degree Days 8 (Base 50)    
Moisture  
Dew Point 35 °F    
Average Humidity 52    
Maximum Humidity 81    
Minimum Humidity 22    
Precipitation  
Precipitation 0.00 in - - ()
Sea Level Pressure  
Sea Level Pressure 29.98 in    
Wind  
Wind Speed 12 mph (NNW)    
Max Wind Speed 20 mph    
Max Gust Speed 29 mph    
Visibility 10 miles    
Events      
Averages and records for this station are not official NWS values.
T = Trace of Precipitation, MM = Missing Value Source: NWS Daily Summary

Daily Weather History Graph

Daily Weather History Graph

Search for Another Location

Airport or City:

Trip Planner

Search our weather history database for the weather conditions in past years. The results will help you decide how hot, cold, wet, or windy it might be!

Date:

Astronomy

Mar. 31, 2014 Rise Set
Actual Time 6:53 AM EDT 7:28 PM EDT
Civil Twilight 6:27 AM EDT 7:54 PM EDT
Nautical Twilight 5:56 AM EDT 8:25 PM EDT
Astronomical Twilight 5:25 AM EDT 8:57 PM EDT
Moon 7:17 AM EDT (3/31) 8:42 PM EDT (3/31)
Length of Visible Light 13h 27m
Length of Day
12h 34m
New Moon, 1% of the Moon is Illuminated
Mar 31
New Moon
Apr 7
First Quarter
Apr 15
Full
Apr 22
Last Quarter
Apr 29
New

Hourly Weather History & Observations

Time (EDT) Temp. Windchill Dew Point Humidity Pressure Visibility Wind Dir Wind Speed Gust Speed Precip Events Conditions
12:15 AM 46.4 °F 41.1 °F 39.2 °F 76% 29.83 in 10.0 mi NNW 11.5 mph 21.9 mph N/A   Unknown
12:35 AM 46.4 °F 40.7 °F 39.2 °F 76% 29.84 in 10.0 mi NW 12.7 mph 17.3 mph N/A   Unknown
12:55 AM 46.4 °F 40.4 °F 39.2 °F 76% 29.84 in 10.0 mi NNW 13.8 mph 24.2 mph N/A   Unknown
1:15 AM 46.4 °F 40.1 °F 37.4 °F 71% 29.84 in 10.0 mi NNW 15.0 mph 24.2 mph N/A   Unknown
1:35 AM 46.4 °F 41.5 °F 37.4 °F 71% 29.84 in 10.0 mi NNW 10.4 mph 18.4 mph N/A   Unknown
1:55 AM 48.2 °F - 37.4 °F 66% 29.85 in 10.0 mi NNW 12.7 mph 23.0 mph N/A   Unknown
2:15 AM 48.2 °F - 37.4 °F 66% 29.85 in 10.0 mi NNW 17.3 mph 23.0 mph N/A   Unknown
2:35 AM 48.2 °F - 37.4 °F 66% 29.86 in 10.0 mi NNW 15.0 mph 23.0 mph N/A   Unknown
2:55 AM 48.2 °F - 37.4 °F 66% 29.86 in 10.0 mi NNW 12.7 mph 19.6 mph N/A   Unknown
3:15 AM 46.4 °F 40.7 °F 35.6 °F 66% 29.86 in 10.0 mi NW 12.7 mph 24.2 mph N/A   Unknown
3:35 AM 46.4 °F 40.4 °F 35.6 °F 66% 29.86 in 10.0 mi NNW 13.8 mph 24.2 mph N/A   Unknown
3:55 AM 46.4 °F 41.1 °F 35.6 °F 66% 29.87 in 10.0 mi NNW 11.5 mph 23.0 mph N/A   Unknown
4:15 AM 46.4 °F 39.5 °F 33.8 °F 62% 29.87 in 10.0 mi NNW 17.3 mph 24.2 mph N/A   Unknown
4:35 AM 46.4 °F 39.0 °F 33.8 °F 62% 29.88 in 10.0 mi NNW 19.6 mph 28.8 mph N/A   Unknown
4:55 AM 46.4 °F 40.4 °F 33.8 °F 62% 29.88 in 10.0 mi NNW 13.8 mph 28.8 mph N/A   Unknown
5:15 AM 44.6 °F 38.1 °F 33.8 °F 66% 29.89 in 10.0 mi NNW 13.8 mph 23.0 mph N/A   Unknown
5:35 AM 44.6 °F 38.4 °F 33.8 °F 66% 29.90 in 10.0 mi NNW 12.7 mph 18.4 mph N/A   Unknown
5:55 AM 44.6 °F 38.1 °F 32.0 °F 61% 29.91 in 10.0 mi NNW 13.8 mph 20.7 mph N/A   Unknown
6:15 AM 44.6 °F 38.4 °F 32.0 °F 61% 29.92 in 10.0 mi NNW 12.7 mph 19.6 mph N/A   Unknown
6:35 AM 44.6 °F 38.8 °F 32.0 °F 61% 29.92 in 10.0 mi NNW 11.5 mph 20.7 mph N/A   Unknown
6:55 AM 44.6 °F 39.2 °F 32.0 °F 61% 29.93 in 10.0 mi NNW 10.4 mph 18.4 mph N/A   Clear
7:15 AM 44.6 °F 38.1 °F 32.0 °F 61% 29.94 in 10.0 mi NW 13.8 mph 19.6 mph N/A   Clear
7:35 AM 44.6 °F 39.2 °F 32.0 °F 61% 29.95 in 10.0 mi NNW 10.4 mph 18.4 mph N/A   Clear
7:55 AM 44.6 °F 38.8 °F 32.0 °F 61% 29.96 in 10.0 mi NW 11.5 mph 19.6 mph N/A   Clear
8:15 AM 44.6 °F 38.4 °F 32.0 °F 61% 29.98 in 10.0 mi NNW 12.7 mph 24.2 mph N/A   Clear
8:35 AM 46.4 °F 41.1 °F 33.8 °F 62% 29.98 in 10.0 mi NNW 11.5 mph 25.3 mph N/A   Clear
8:55 AM 46.4 °F 40.4 °F 32.0 °F 57% 29.98 in 10.0 mi NNW 13.8 mph 21.9 mph N/A   Unknown
9:15 AM 48.2 °F - 33.8 °F 58% 29.99 in 10.0 mi NNW 17.3 mph 24.2 mph N/A   Unknown
9:35 AM 50.0 °F - 33.8 °F 54% 30.00 in 10.0 mi NNW 15.0 mph 21.9 mph N/A   Unknown
9:55 AM 51.8 °F - 33.8 °F 50% 30.01 in 10.0 mi NNW 11.5 mph 27.6 mph N/A   Clear
10:15 AM 53.6 °F - 35.6 °F 51% 30.01 in 10.0 mi NNW 12.7 mph 25.3 mph N/A   Clear
10:35 AM 53.6 °F - 35.6 °F 51% 30.02 in 10.0 mi NNW 15.0 mph 25.3 mph N/A   Clear
10:55 AM 55.4 °F - 33.8 °F 44% 30.02 in 10.0 mi NNW 17.3 mph 27.6 mph N/A   Clear
11:10 AM 55.4 °F - 35.6 °F 47% 30.03 in 10.0 mi North 12.7 mph 25.3 mph N/A   Clear
11:35 AM 57.2 °F - 35.6 °F 44% 30.03 in 10.0 mi NNW 11.5 mph 20.7 mph N/A   Clear
11:55 AM 59.0 °F - 33.8 °F 39% 30.02 in 10.0 mi NW 18.4 mph 26.5 mph N/A   Clear
12:15 PM 60.8 °F - 35.6 °F 39% 30.02 in 10.0 mi NNW 11.5 mph 27.6 mph N/A   Clear
12:35 PM 62.6 °F - 35.6 °F 37% 30.02 in 10.0 mi North 12.7 mph 23.0 mph N/A   Clear
12:55 PM 64.4 °F - 35.6 °F 34% 30.01 in 10.0 mi North 12.7 mph 26.5 mph N/A   Clear
1:15 PM 64.4 °F - 37.4 °F 37% 30.01 in 10.0 mi North 8.1 mph 25.3 mph N/A   Clear
1:35 PM 64.4 °F - 35.6 °F 34% 30.01 in 10.0 mi North 10.4 mph 28.8 mph N/A   Clear
1:55 PM 66.2 °F - 35.6 °F 32% 30.00 in 10.0 mi NNW 15.0 mph 26.5 mph N/A   Clear
2:15 PM 66.2 °F - 35.6 °F 32% 30.00 in 10.0 mi NW 16.1 mph 23.0 mph N/A   Clear
2:35 PM 68.0 °F - 37.4 °F 33% 29.99 in 10.0 mi North 15.0 mph 26.5 mph N/A   Clear
2:55 PM 68.0 °F - 35.6 °F 30% 30.00 in 10.0 mi NNW 19.6 mph 25.3 mph N/A   Clear
3:15 PM 69.8 °F - 35.6 °F 28% 29.99 in 10.0 mi North 8.1 mph 25.3 mph N/A   Clear
3:35 PM 69.8 °F - 35.6 °F 28% 29.99 in 10.0 mi NNW 15.0 mph 24.2 mph N/A   Clear
3:55 PM 69.8 °F - 33.8 °F 27% 30.00 in 10.0 mi NNW 18.4 mph 26.5 mph N/A   Clear
4:15 PM 69.8 °F - 35.6 °F 28% 30.00 in 10.0 mi NNW 10.4 mph 19.6 mph N/A   Clear
4:35 PM 71.6 °F - 35.6 °F 27% 29.99 in 10.0 mi NNW 12.7 mph 21.9 mph N/A   Clear
4:55 PM 71.6 °F - 32.0 °F 23% 29.99 in 10.0 mi NW 16.1 mph 21.9 mph N/A   Clear
5:15 PM 69.8 °F - 32.0 °F 25% 30.00 in 10.0 mi NNW 15.0 mph 21.9 mph N/A   Clear
5:35 PM 71.6 °F - 30.2 °F 22% 30.00 in 10.0 mi NW 9.2 mph 17.3 mph N/A   Clear
5:55 PM 69.8 °F - 30.2 °F 23% 30.00 in 10.0 mi NW 12.7 mph 21.9 mph N/A   Clear
6:15 PM 69.8 °F - 33.8 °F 27% 30.00 in 10.0 mi NW 9.2 mph 20.7 mph N/A   Clear
6:35 PM 69.8 °F - 33.8 °F 27% 30.01 in 10.0 mi NW 9.2 mph 17.3 mph N/A   Clear
6:55 PM 68.0 °F - 33.8 °F 28% 30.02 in 10.0 mi NW 8.1 mph - N/A   Clear
7:15 PM 64.4 °F - 35.6 °F 34% 30.02 in 10.0 mi NNW 8.1 mph - N/A   Clear
7:35 PM 62.6 °F - 35.6 °F 37% 30.02 in 10.0 mi NNW 6.9 mph - N/A   Clear
7:55 PM 60.8 °F - 35.6 °F 39% 30.03 in 10.0 mi NW 3.5 mph - N/A   Clear
8:15 PM 59.0 °F - 33.8 °F 39% 30.04 in 10.0 mi NNW 4.6 mph - N/A   Clear
8:35 PM 55.4 °F - 39.2 °F 54% 30.05 in 10.0 mi North 3.5 mph - N/A   Clear
8:55 PM 53.6 °F - 39.2 °F 58% 30.06 in 10.0 mi Calm Calm - N/A   Clear
9:15 PM 51.8 °F - 39.2 °F 62% 30.07 in 10.0 mi North 3.5 mph - N/A   Clear
9:35 PM 51.8 °F - 39.2 °F 62% 30.07 in 10.0 mi NNW 3.5 mph - N/A   Clear
9:55 PM 51.8 °F - 41.0 °F 67% 30.07 in 10.0 mi North 4.6 mph - N/A   Clear
10:15 PM 48.2 °F - 39.2 °F 71% 30.08 in 10.0 mi NNW 3.5 mph - N/A   Clear
10:35 PM 48.2 °F - 41.0 °F 76% 30.08 in 10.0 mi NNW 3.5 mph - N/A   Clear
10:55 PM 48.2 °F - 41.0 °F 76% 30.08 in 10.0 mi NW 3.5 mph - N/A   Clear
11:15 PM 46.4 °F 45.2 °F 39.2 °F 76% 30.09 in 10.0 mi NW 3.5 mph - N/A   Clear
11:35 PM 46.4 °F 43.5 °F 41.0 °F 81% 30.09 in 10.0 mi NNW 5.8 mph - N/A   Clear
11:55 PM 46.4 °F 44.3 °F 39.2 °F 76% 30.09 in 10.0 mi North 4.6 mph - N/A   Clear